| time (UTC) | temp F | wind direction | speed MPH | gust MPH | rain 1hr in | rain 24hr in | rain mn in | humidity % | barometer mb |
| 20260505124524 | 0 | 0.0 | 0.0 | 0.00 | 0.00 | 0.00 | 1005.3 | ||
| 20260505123017 | 0 | 0.0 | 0.0 | 0.00 | 0.00 | 0.00 | 1005.1 | ||
| 20260505121513 | 0 | 0.0 | 0.0 | 0.00 | 0.00 | 0.00 | 1005.0 | ||
| 20260505120012 | 73 | 56 | 1.0 | 4.0 | 0.00 | 0.00 | 0.00 | 83 | 1004.9 |
| 20260505114511 | 73 | 46 | 1.0 | 5.0 | 0.00 | 0.00 | 0.00 | 83 | 1004.8 |
| 20260505113008 | 73 | 336 | 0.0 | 1.0 | 0.00 | 0.00 | 0.00 | 82 | 1004.9 |
| 20260505111508 | 72 | 336 | 0.0 | 2.0 | 0.00 | 0.00 | 0.00 | 81 | 1004.9 |
| 20260505101508 | 73 | 278 | 0.0 | 3.0 | 0.00 | 0.00 | 0.00 | 81 | 1004.7 |
| 20260505100005 | 74 | 278 | 0.0 | 0.0 | 0.00 | 0.00 | 0.00 | 80 | 1004.8 |
| 20260505094505 | 73 | 278 | 0.0 | 1.0 | 0.00 | 0.00 | 0.00 | 79 | 1004.6 |
| 20260505093103 | 72 | 278 | 0.0 | 1.0 | 0.00 | 0.00 | 0.00 | 78 | 1004.6 |
| 20260505091612 | 71 | 278 | 0.0 | 1.0 | 0.00 | 0.00 | 0.00 | 76 | 1004.7 |
| 20260505090057 | 69 | 278 | 0.0 | 3.0 | 0.00 | 0.00 | 0.00 | 74 | 1004.8 |
| 20260505084556 | 69 | 277 | 2.0 | 4.0 | 0.00 | 0.00 | 0.00 | 71 | 1004.9 |
| 20260505083051 | 70 | 287 | 2.0 | 5.0 | 0.00 | 0.00 | 0.00 | 71 | 1005.0 |
| 20260505081553 | 72 | 302 | 0.0 | 0.0 | 0.00 | 0.00 | 0.00 | 75 | 1004.9 |
| 20260505080055 | 71 | 302 | 0.0 | 0.0 | 0.00 | 0.00 | 0.00 | 74 | 1005.0 |
| 20260505074549 | 70 | 301 | 0.0 | 1.0 | 0.00 | 0.00 | 0.00 | 70 | 1004.9 |
| 20260505073029 | 71 | 302 | 0.0 | 3.0 | 0.00 | 0.00 | 0.00 | 70 | 1004.9 |
| 20260505071518 | 71 | 302 | 0.0 | 2.0 | 0.00 | 0.00 | 0.00 | 72 | 1004.9 |
| 20260505070027 | 71 | 302 | 0.0 | 3.0 | 0.00 | 0.00 | 0.00 | 73 | 1004.1 |
| 20260505064515 | 71 | 301 | 0.0 | 4.0 | 0.00 | 0.00 | 0.00 | 72 | 1004.4 |
| 20260505063014 | 70 | 301 | 0.0 | 4.0 | 0.00 | 0.00 | 0.00 | 70 | 1001.8 |
| 20260505061519 | 71 | 301 | 0.0 | 2.0 | 0.00 | 0.00 | 0.00 | 72 | 1003.6 |
| 20260505060011 | 71 | 301 | 0.0 | 0.0 | 0.00 | 0.00 | 0.00 | 71 | 1003.9 |
| 20260505054511 | 70 | 301 | 1.0 | 5.0 | 0.00 | 0.00 | 0.00 | 69 | 1004.7 |
| 20260505053012 | 70 | 302 | 1.0 | 6.0 | 0.00 | 0.00 | 0.00 | 70 | 1003.0 |
| 20260505051512 | 70 | 282 | 3.0 | 7.0 | 0.00 | 0.00 | 0.00 | 70 | 1003.3 |
| 20260505041558 | 75 | 322 | 0.0 | 1.0 | 0.00 | 0.00 | 0.00 | 67 | 1002.1 |
| 20260505040033 | 75 | 322 | 0.0 | 0.0 | 0.00 | 0.00 | 0.00 | 64 | 1002.1 |
| 20260505034524 | 75 | 322 | 0.0 | 0.0 | 0.00 | 0.00 | 0.00 | 63 | 992.9 |
| 20260505033020 | 75 | 322 | 0.0 | 2.0 | 0.00 | 0.00 | 0.00 | 62 | 1003.6 |
| 20260505031533 | 75 | 321 | 0.0 | 0.0 | 0.00 | 0.00 | 0.00 | 63 | 1002.9 |
| 20260505030017 | 76 | 322 | 0.0 | 0.0 | 0.00 | 0.00 | 0.00 | 64 | 1000.3 |
| 20260505024517 | 75 | 322 | 0.0 | 2.0 | 0.00 | 0.00 | 0.00 | 65 | 999.7 |
| 20260505023013 | 75 | 308 | 2.0 | 8.0 | 0.00 | 0.00 | 0.00 | 63 | 991.2 |
| 20260505021513 | 75 | 308 | 3.0 | 6.0 | 0.00 | 0.00 | 0.00 | 63 | 1000.1 |
| 20260505020012 | 76 | 289 | 2.0 | 5.0 | 0.00 | 0.00 | 0.00 | 61 | 1000.1 |
| 20260505014511 | 77 | 289 | 3.0 | 5.0 | 0.00 | 0.00 | 0.00 | 60 | 999.3 |
| 20260505013011 | 78 | 279 | 3.0 | 7.0 | 0.00 | 0.00 | 0.00 | 58 | 995.3 |
| 20260505011508 | 79 | 294 | 2.0 | 7.0 | 0.00 | 0.00 | 0.00 | 57 | 996.7 |
| 20260505010009 | 80 | 255 | 2.0 | 7.0 | 0.00 | 0.00 | 0.00 | 57 | 999.3 |
| 20260505010007 | 80 | 252 | 2.0 | 7.0 | 0.00 | 0.00 | 0.00 | 57 | 999.3 |
| 20260505004507 | 79 | 254 | 3.0 | 8.0 | 0.00 | 0.00 | 0.00 | 57 | 999.3 |
| 20260505003006 | 80 | 260 | 3.0 | 7.0 | 0.00 | 0.00 | 0.00 | 56 | 999.1 |
| 20260505001536 | 81 | 258 | 3.0 | 7.0 | 0.00 | 0.00 | 0.00 | 53 | 999.1 |
| 20260505000048 | 83 | 223 | 2.0 | 5.0 | 0.00 | 0.00 | 0.00 | 50 | 997.7 |
| 20260504234538 | 84 | 295 | 3.0 | 5.0 | 0.00 | 0.00 | 0.00 | 47 | 994.0 |
| 20260504233048 | 84 | 265 | 3.0 | 5.0 | 0.00 | 0.00 | 0.00 | 47 | 1004.3 |
| 20260504231534 | 86 | 255 | 2.0 | 6.0 | 0.00 | 0.00 | 0.00 | 47 | 1003.6 |
| 20260504230036 | 85 | 191 | 0.0 | 3.0 | 0.00 | 0.00 | 0.00 | 53 | 1003.9 |
| 20260504224534 | 84 | 110 | 1.0 | 4.0 | 0.00 | 0.00 | 0.00 | 56 | 1001.3 |
| 20260504223051 | 84 | 124 | 1.0 | 5.0 | 0.00 | 0.00 | 0.00 | 56 | 1004.0 |
| 20260504221531 | 85 | 83 | 1.0 | 4.0 | 0.00 | 0.00 | 0.00 | 53 | 1003.8 |
| 20260504220031 | 86 | 156 | 1.0 | 3.0 | 0.00 | 0.00 | 0.00 | 50 | 1001.2 |
| 20260504214530 | 84 | 121 | 1.0 | 4.0 | 0.00 | 0.00 | 0.00 | 49 | 1005.0 |
| 20260504213039 | 84 | 93 | 1.0 | 4.0 | 0.00 | 0.00 | 0.00 | 50 | 1005.5 |
| 20260504211532 | 83 | 75 | 2.0 | 5.0 | 0.00 | 0.00 | 0.00 | 53 | 1000.0 |
| 20260504210026 | 84 | 100 | 2.0 | 5.0 | 0.00 | 0.00 | 0.00 | 54 | 1000.3 |
| 20260504204535 | 84 | 83 | 2.0 | 5.0 | 0.00 | 0.00 | 0.00 | 56 | 1001.8 |
| 20260504203025 | 85 | 118 | 3.0 | 5.0 | 0.00 | 0.00 | 0.00 | 52 | 1003.3 |
| 20260504201521 | 89 | 140 | 1.0 | 8.0 | 0.00 | 0.00 | 0.00 | 39 | 1001.6 |
| 20260504200018 | 87 | 255 | 2.0 | 5.0 | 0.00 | 0.00 | 0.00 | 40 | 1004.1 |
| 20260504194515 | 87 | 312 | 3.0 | 5.0 | 0.00 | 0.00 | 0.00 | 41 | 1006.3 |
| 20260504193015 | 86 | 306 | 4.0 | 6.0 | 0.00 | 0.00 | 0.00 | 41 | 1003.0 |
| 20260504191513 | 87 | 233 | 3.0 | 7.0 | 0.00 | 0.00 | 0.00 | 40 | 1002.0 |
| 20260504190015 | 87 | 270 | 2.0 | 8.0 | 0.00 | 0.00 | 0.00 | 38 | 1005.5 |
| 20260504184509 | 86 | 290 | 3.0 | 6.0 | 0.00 | 0.00 | 0.00 | 38 | 1006.5 |
| 20260504183008 | 86 | 262 | 3.0 | 8.0 | 0.00 | 0.00 | 0.00 | 37 | 1006.6 |
| 20260504181512 | 86 | 255 | 2.0 | 7.0 | 0.00 | 0.00 | 0.00 | 39 | 1001.2 |
| 20260504180006 | 85 | 254 | 4.0 | 8.0 | 0.00 | 0.00 | 0.00 | 40 | 1002.3 |
| 20260504174531 | 85 | 247 | 3.0 | 7.0 | 0.00 | 0.00 | 0.00 | 41 | 1002.3 |
| 20260504173027 | 84 | 252 | 3.0 | 7.0 | 0.00 | 0.00 | 0.00 | 42 | 1007.1 |
| 20260504171655 | 83 | 172 | 3.0 | 5.0 | 0.00 | 0.00 | 0.00 | 41 | 1006.1 |